Regional Weather Roundup
Issued by NWS Little Rock, AR

Home | Current Version | Previous Version | Text Only | Print | Product List | Glossary On
Versions: 1 2 3 4 5 6 7 8 9 10 11 12 13 14 15 16 17 18 19 20 21 22 23 24 25 26 27 28 29 30 31
000
ASUS44 KLZK 210905
RWRLZK

WEATHER ROUNDUP FOR ARKANSAS
NATIONAL WEATHER SERVICE LITTLE ROCK AR
300 AM CST TUE FEB 21 2017

NOTE: "FAIR" INDICATES FEW OR NO CLOUDS BELOW 12,000 FEET WITH NO
SIGNIFICANT WEATHER AND/OR OBSTRUCTIONS TO VISIBILITY.

ARZ001-003-010-029-211000-
NORTHWEST ARKANSAS

CITY           SKY/WX    TMP DP  RH WIND       PRES   REMARKS
FAYETTEVILLE   LGT RAIN  55  55 100 CALM      29.90R
FORT SMITH     CLOUDY    58  56  93 W5        29.88F FOG
HARRISON       CLOUDY    56  56 100 CALM      29.90S
BENTONVILLE    CLOUDY    55  54  94 CALM      29.91R
ROGERS         CLOUDY    55  54  96 W3        29.92F
SILOAM SPGS    CLOUDY    54  50  87 CALM      29.90S
HIGHFILL       CLOUDY    56  54  93 NW3       29.90S
$$

ARZ004-005-016-211000-
NORTH CENTRAL ARKANSAS

CITY           SKY/WX    TMP DP  RH WIND       PRES   REMARKS
BATESVILLE     CLOUDY    61  59  94 W3        29.87F
FLIPPIN        CLOUDY    57  54  88 NE7       29.84F
MTN HOME       LGT RAIN  57  56  96 E9        29.86F
$$

ARZ040-041-211000-
WEST CENTRAL ARKANSAS

CITY           SKY/WX    TMP DP  RH WIND       PRES   REMARKS
MENA           CLOUDY    59  57  94 CALM      29.89F
MOUNT IDA      LGT RAIN  58  56  93 CALM      29.86S FOG
$$

ARZ009-017-025-026-028-211000-
NORTHEAST ARKANSAS

CITY           SKY/WX    TMP DP  RH WIND       PRES   REMARKS
CORNING        RAIN      57  57 100 NE8       29.89F
JONESBORO      RAIN      59  58  96 NE5       29.87F FOG
NEWPORT        LGT RAIN  60  59  96 NE7       29.85
WALNUT RIDGE   CLOUDY    57  54  88 NE10      29.87F
BLYTHEVILLE    LGT RAIN  59  55  87 CALM      29.90R
$$

ARZ022-023-033-042-044-211000-
CENTRAL ARKANSAS

CITY           SKY/WX    TMP DP  RH WIND       PRES   REMARKS
LITTLE ROCK    LGT RAIN  59  59 100 NE6       29.82F
N LITTLE ROCK    N/A     58  57  95 NE8G17    29.82F
JACKSONVILLE   MOCLDY    59  59 100 NE10      29.78F
SEARCY         LGT RAIN  60  60 100 N5        29.85F
HOT SPRINGS    LGT RAIN  58  58 100 W5        29.88S
RUSSELLVILLE   CLOUDY    58  58 100 CALM      29.86R
$$

ARZ036-211000-
EAST ARKANSAS

CITY           SKY/WX    TMP DP  RH WIND       PRES   REMARKS
WEST MEMPHIS   RAIN      60  59  96 CALM      29.87F FOG
$$

ARZ050-053-066-070-073-211000-
SOUTHWEST ARKANSAS

CITY           SKY/WX    TMP DP  RH WIND       PRES   REMARKS
ARKADELPHIA      N/A    N/A N/A N/A MISG        N/A
CAMDEN         LGT RAIN  57  55  94 SW5       29.90F
TEXARKANA      LGT RAIN  57  57 100 SW8       29.89F
EL DORADO      CLOUDY    58  57  97 SW5       29.90F
DE QUEEN       CLOUDY    56  56 100 SW3       29.88F FOG
$$

ARZ056-057-069-211000-
SOUTHEAST ARKANSAS

CITY           SKY/WX    TMP DP  RH WIND       PRES   REMARKS
PINE BLUFF     LGT RAIN  59  58  96 W5        29.84F
STUTTGART      CLOUDY    59  52  77 CALM      29.85F
MONTICELLO     LGT RAIN  59  57  93 VRB5      29.80F

$$






USA.gov is the U.S. government's official web portal to all federal, state and local government web resources and services.